| time (UTC) | temp C | wind direction | speed KPH | gust KPH | rain 1hr cm | rain 24hr cm | rain mn cm | humidity % | barometer mb |
| 20260507014515 | 8 | 234 | 0.0 | 3.2 | 0.00 | 0.00 | 0.00 | 49 | 1012.7 |
| 20260507013021 | 8 | 246 | 0.0 | 6.4 | 0.00 | 0.00 | 0.00 | 49 | 1012.6 |
| 20260507011520 | 8 | 257 | 0.0 | 4.8 | 0.00 | 0.00 | 0.00 | 49 | 1012.4 |
| 20260507010022 | 9 | 252 | 1.6 | 4.8 | 0.00 | 0.00 | 0.00 | 48 | 1012.5 |
| 20260507004533 | 9 | 213 | 0.0 | 1.6 | 0.00 | 0.00 | 0.00 | 50 | 1012.5 |
| 20260507003012 | 9 | 219 | 0.0 | 4.8 | 0.00 | 0.00 | 0.00 | 50 | 1012.3 |
| 20260507001524 | 10 | 239 | 1.6 | 6.4 | 0.00 | 0.00 | 0.00 | 49 | 1012.2 |
| 20260507000026 | 10 | 309 | 0.0 | 4.8 | 0.00 | 0.00 | 0.00 | 52 | 1012.2 |
| 20260506234534 | 10 | 246 | 0.0 | 4.8 | 0.00 | 0.00 | 0.00 | 50 | 1012.2 |
| 20260506233026 | 10 | 231 | 0.0 | 4.8 | 0.00 | 0.00 | 0.00 | 51 | 1012.1 |
| 20260506231529 | 10 | 286 | 1.6 | 4.8 | 0.00 | 0.00 | 0.00 | 48 | 1012.0 |
| 20260506224527 | 11 | 340 | 1.6 | 4.8 | 0.00 | 0.00 | 0.00 | 48 | 1011.9 |
| 20260506223040 | 11 | 355 | 1.6 | 8.0 | 0.00 | 0.00 | 0.00 | 49 | 1012.0 |
| 20260506221527 | 11 | 257 | 0.0 | 4.8 | 0.00 | 0.00 | 0.00 | 47 | 1012.1 |
| 20260506220016 | 11 | 272 | 1.6 | 4.8 | 0.00 | 0.00 | 0.00 | 46 | 1012.2 |
| 20260506214520 | 11 | 269 | 1.6 | 11.3 | 0.00 | 0.00 | 0.00 | 50 | 1012.1 |
| 20260506213026 | 11 | 319 | 1.6 | 6.4 | 0.00 | 0.00 | 0.00 | 47 | 1012.0 |
| 20260506211532 | 11 | 251 | 3.2 | 12.9 | 0.00 | 0.00 | 0.00 | 47 | 1012.0 |
| 20260506210030 | 11 | 244 | 4.8 | 17.7 | 0.00 | 0.00 | 0.00 | 47 | 1012.0 |
| 20260506204517 | 11 | 229 | 4.8 | 12.9 | 0.00 | 0.00 | 0.00 | 47 | 1012.0 |
| 20260506203028 | 11 | 341 | 3.2 | 6.4 | 0.00 | 0.00 | 0.00 | 44 | 1012.0 |
| 20260506201534 | 11 | 337 | 3.2 | 9.7 | 0.00 | 0.00 | 0.00 | 48 | 1012.0 |
| 20260506200028 | 10 | 302 | 0.0 | 12.9 | 0.00 | 0.00 | 0.00 | 48 | 1012.2 |
| 20260506194529 | 11 | 77 | 3.2 | 8.0 | 0.00 | 0.00 | 0.00 | 47 | 1012.2 |
| 20260506193020 | 11 | 227 | 1.6 | 12.9 | 0.00 | 0.00 | 0.00 | 50 | 1012.3 |
| 20260506191524 | 10 | 352 | 4.8 | 12.9 | 0.00 | 0.00 | 0.00 | 47 | 1012.5 |
| 20260506190025 | 10 | 290 | 1.6 | 12.9 | 0.00 | 0.00 | 0.00 | 51 | 1012.7 |
| 20260506184525 | 10 | 290 | 1.6 | 16.1 | 0.00 | 0.00 | 0.00 | 52 | 1012.4 |
| 20260506183036 | 10 | 344 | 9.7 | 17.7 | 0.00 | 0.00 | 0.00 | 47 | 1012.3 |
| 20260506181522 | 10 | 343 | 3.2 | 14.5 | 0.00 | 0.00 | 0.00 | 48 | 1012.3 |
| 20260506180027 | 10 | 311 | 4.8 | 12.9 | 0.00 | 0.00 | 0.00 | 48 | 1012.3 |
| 20260506174525 | 10 | 259 | 1.6 | 19.3 | 0.00 | 0.00 | 0.00 | 54 | 1012.3 |
| 20260506173028 | 10 | 293 | 1.6 | 12.9 | 0.00 | 0.00 | 0.00 | 53 | 1012.9 |
| 20260506171530 | 9 | 9 | 4.8 | 16.1 | 0.00 | 0.00 | 0.00 | 51 | 1013.0 |
| 20260506170005 | 10 | 257 | 3.2 | 12.9 | 0.00 | 0.00 | 0.00 | 53 | 1012.7 |
| 20260506164508 | 10 | 273 | 1.6 | 14.5 | 0.00 | 0.00 | 0.00 | 55 | 1012.8 |
| 20260506163014 | 9 | 314 | 4.8 | 24.1 | 0.00 | 0.00 | 0.00 | 54 | 1012.7 |
| 20260506160004 | 10 | 274 | 3.2 | 14.5 | 0.00 | 0.08 | 0.00 | 56 | 1012.7 |
| 20260506154506 | 10 | 267 | 3.2 | 12.9 | 0.00 | 0.10 | 0.00 | 54 | 1012.5 |
| 20260506153012 | 10 | 317 | 6.4 | 19.3 | 0.00 | 0.13 | 0.00 | 52 | 1012.2 |
| 20260506151518 | 10 | 325 | 6.4 | 19.3 | 0.00 | 0.13 | 0.00 | 52 | 1012.2 |
| 20260506144505 | 9 | 41 | 3.2 | 20.9 | 0.00 | 0.13 | 0.00 | 55 | 1012.1 |
| 20260506143020 | 9 | 332 | 1.6 | 14.5 | 0.00 | 0.13 | 0.00 | 59 | 1011.9 |
| 20260506141514 | 9 | 343 | 4.8 | 16.1 | 0.00 | 0.13 | 0.00 | 60 | 1011.7 |
| 20260506131511 | 8 | 348 | 4.8 | 17.7 | 0.00 | 0.13 | 0.00 | 57 | 1011.3 |
| 20260506124518 | 7 | 326 | 1.6 | 8.0 | 0.00 | 0.13 | 0.00 | 60 | 1010.9 |
| 20260506123029 | 7 | 340 | 4.8 | 9.7 | 0.00 | 0.13 | 0.00 | 60 | 1010.7 |
| 20260506113028 | 5 | 286 | 0.0 | 4.8 | 0.00 | 0.13 | 0.00 | 70 | 1010.0 |
| 20260506111523 | 4 | 286 | 0.0 | 3.2 | 0.00 | 0.13 | 0.00 | 70 | 1009.9 |
| 20260506110011 | 5 | 316 | 0.0 | 0.0 | 0.00 | 0.13 | 0.00 | 69 | 1009.7 |
| 20260506103022 | 6 | 290 | 0.0 | 4.8 | 0.00 | 0.13 | 0.00 | 65 | 1009.2 |
| 20260506101522 | 6 | 344 | 0.0 | 4.8 | 0.00 | 0.13 | 0.00 | 63 | 1009.3 |
| 20260506100028 | 6 | 309 | 0.0 | 4.8 | 0.00 | 0.13 | 0.00 | 65 | 1009.3 |
| 20260506094519 | 6 | 299 | 0.0 | 3.2 | 0.00 | 0.13 | 0.00 | 64 | 1009.0 |
| 20260506093019 | 6 | 331 | 0.0 | 8.0 | 0.00 | 0.13 | 0.00 | 62 | 1008.8 |
| 20260506090040 | 7 | 315 | 0.0 | 4.8 | 0.00 | 0.13 | 0.00 | 64 | 1008.9 |
| 20260506084525 | 7 | 328 | 1.6 | 8.0 | 0.00 | 0.13 | 0.00 | 62 | 1008.4 |
| 20260506083015 | 7 | 333 | 1.6 | 9.7 | 0.00 | 0.13 | 0.00 | 62 | 1008.6 |
| 20260506044524 | 8 | 295 | 0.0 | 6.4 | 0.00 | 0.13 | 0.00 | 62 | 1008.7 |
| 20260506034518 | 8 | 280 | 0.0 | 6.4 | 0.00 | 0.25 | 0.25 | 60 | 1008.3 |
| 20260506033022 | 8 | 225 | 0.0 | 4.8 | 0.00 | 0.25 | 0.25 | 60 | 1008.3 |
| 20260506031529 | 8 | 284 | 0.0 | 3.2 | 0.00 | 0.25 | 0.25 | 58 | 1008.5 |
| 20260506030015 | 8 | 240 | 0.0 | 4.8 | 0.00 | 0.25 | 0.25 | 58 | 1008.5 |
| 20260506024533 | 8 | 257 | 0.0 | 4.8 | 0.00 | 0.25 | 0.25 | 57 | 1008.4 |
| 20260506023022 | 8 | 284 | 0.0 | 4.8 | 0.00 | 0.25 | 0.25 | 56 | 1008.4 |
| 20260506021524 | 8 | 255 | 0.0 | 4.8 | 0.00 | 0.25 | 0.25 | 55 | 1008.3 |
| 20260506020024 | 8 | 204 | 0.0 | 3.2 | 0.00 | 0.25 | 0.25 | 56 | 1008.3 |